Préparation du vol

Réserver un ULM chez EFU                     Découvrir nos appareils                     Coordonnées de l'école

Available data for LFPN from the past hour

METAR
LFPN 240400Z AUTO 31003KT 1900 1400 R25R/1800D BR BKN003 OVC007 13/12 Q1018
LFPN 240330Z AUTO 34003KT 2000 1200 R25R/1500D BR SCT008 SCT015 BKN180 12/12 Q1018

Pour avoir des informations détaillée sur la météo à venir vous pouvez consulter Aeroweb

prevision des pluies

Nota : Heuro locale = heure CET

ATISATIS Étampes129.900
SOLÉtampes sol121.850
TWRÉtampes tour119.050
VDFÉtampes gonio119.050

OLIVIA

Outil en Ligne Intégré de Visualisation d'Informations Aéronautiques

OLIVIA